www.pogodaiklimat.ru

Погода и климат >> Архив погоды >> Ирак >> Туз


ПОГОДА в Тузе

  • Прогноз погоды в Тузе
  • Монитор погоды в Тузе

АРХИВ ПОГОДЫ в Тузе

Время (UTC), дата Ветер
(напр.,м/с)
 
Видим.   Явления Облачность Т
(С)
Тd
(С)
f
(%)
Тe
(С)
Тes
(С)
Комфортность P
(гПа)
Po
(гПа)
Тmin
(С)
Tmax
(С)
R
(мм)
R24
(мм)
S
(см)
06 16.08 ЮВ 2 10 км ясно +36.4 +15.4 29 +38 +49 очень
душно
1002.2 978.2 +30.9
12 16.08 С 4 10 км ясно +48.4 +12.9 13 +48 +55 опасность
перегрева
999.3 976.2
15 16.08 В 3 10 км ясно +40.6 +13.1 20 +41 +41 опасность
перегрева
998.9 975.2
18 16.08 СВ 2 10 км ясно +35.1 +14.0 28 +36 +36 очень
жарко
1000.2 976.1 +43.4
03 17.08 СВ 2 10 км ясно +26.2 +12.4 42 +28 +28 жарко 1002.0 977.1
06 17.08 С 2 10 км ясно +31.2 +8.2 24 +30 +41 жарко 1000.5 976.1 +24.8
09 17.08 С 3 10 км ясно +38.6 +6.8 14 +36 +52 опасность
солнечного
удара
1000.0 976.2
12 17.08 С 3 10 км ясно +40.1 +9.6 16 +38 +47 очень
жарко
998.9 975.2
15 17.08 С 2 10 км ясно +39.0 +10.6 18 +38 +38 очень
жарко
997.8 974.1
18 17.08 С 2 10 км ясно +34.4 +12.1 26 +34 +34 очень
жарко
998.3 974.2 +40.5
03 18.08 штиль 0 10 км ясно +29.0 +13.7 39 +31 +31 жарко 998.6 974.1
06 18.08 СВ 2 10 км ясно +32.5 +14.1 33 +34 +44 очень
жарко
1000.5 976.2 +26.4
09 18.08 С 4 10 км ясно +40.2 +13.6 21 +40 +53 опасность
солнечного
удара
999.9 976.2
15 18.08 С 2 10 км ясно +41.0 +10.2 16 +40 +40 очень
жарко
998.7 975.1
18 18.08 штиль 0 10 км ясно +36.2 +13.6 26 +37 +37 очень
жарко
1001.2 977.2 +42.5
03 19.08 штиль 0 10 км ясно +28.5 +12.7 38 +30 +30 жарко 1002.9 978.2
06 19.08 С 2 10 км ясно +38.0 +13.9 24 +38 +49 очень
жарко
1004.1 980.1 +26.8
09 19.08 С 3 10 км ясно +41.2 +9.7 15 +39 +55 опасность
солнечного
удара
1003.8 980.1
12 19.08 СЗ 4 10 км ясно +42.5 +7.4 12 +40 +47 очень
жарко
1002.8 979.2
15 19.08 СЗ 2 10 км ясно +41.5 +10.9 16 +40 +40 очень
жарко
1002.8 979.1
18 19.08 штиль 0 10 км ясно +36.7 +11.2 22 +36 +36 очень
жарко
1004.3 980.2 +43.0
03 20.08 штиль 0 10 км ясно +26.2 +11.9 41 +28 +28 жарко 1006.1 981.1
06 20.08 штиль 0 10 км ясно +34.2 +12.1 26 +34 +48 очень
жарко
1004.4 980.1 +26.0
09 20.08 С 4 10 км ясно +42.0 +7.3 12 +39 +52 опасность
солнечного
удара
1003.8 980.1
12 20.08 С 2 10 км ясно +43.8 +8.0 12 +42 +52 опасность
перегрева
1002.7 979.2
15 20.08 С 2 10 км ясно +43.0 +11.0 15 +42 +42 опасность
перегрева
1002.7 979.1
18 20.08 штиль 0 10 км ясно +36.0 +14.3 27 +37 +37 душно 1004.3 980.2 +44.5
03 21.08 штиль 0 10 км ясно +30.5 +9.1 26 +30 +30 жарко 1003.7 979.2
06 21.08 штиль 0 10 км ясно +34.0 +9.7 23 +33 +47 жарко 1004.4 980.1 +29.5
09 21.08 СЗ 2 10 км ясно +43.2 +8.6 13 +41 +60 опасность
перегрева
1003.7 980.1
15 21.08 С 2 10 км ясно +44.0 +4.8 9 +41 +41 опасность
перегрева
1000.6 977.2
18 21.08 штиль 0 10 км ясно +36.5 +8.8 19 +35 +35 очень
жарко
1003.3 979.2 +45.8
03 22.08 штиль 0 10 км ясно +26.5 +10.5 37 +27 +28 жарко 1004.1 979.2
06 22.08 С 4 10 км ясно +34.2 +10.1 23 +33 +40 жарко 1003.4 979.2 +25.6
09 22.08 СЗ 4 10 км ясно +39.4 +9.1 16 +38 +50 очень
жарко
1003.0 979.2
15 22.08 З 3 10 км ясно +39.2 +4.2 12 +36 +36 очень
жарко
1001.9 978.1
03 23.08 штиль 0 10 км ясно +29.2 +9.1 28 +29 +29 жарко 1003.7 979.0

 

Местоположение метеостанции Туз (Ирак): широта 34.88 долгота 44.65 высота над уровнем моря 220 м.

В архиве по умолчанию представлена погода в Тузе за последнюю неделю. Архивные данные за месяц целиком и за предыдущие месяцы, начиная с января 2011 года, Вы можете получить, выбрав интересующий диапазон дат из раскрывающегося списка и нажав кнопку "Ввод!".


*Определитесь, кто Вы:
робот инопланетянин человек

Внимание! Время в таблицах - всемирное. Для получения местного времени необходимо прибавить поправку, которая равна 3 ч.

Смотрите также архив погоды в соседних городах и на ближайших метеорологических станциях:

Погода в Киркуке (Ирак) (69 км)
Погода в Чамчамале (Ирак) (73 км)
Погода в Тикрите (Ирак) (93 км)
Погода в Ханакине (Ирак) (96 км)
Погода в Сулеймании (Ирак) (104 км)
Погода в Бейджи (Ирак) (107 км)
Погода в Эль-Халисе (Ирак) (117 км)
Погода в Халабче (Ирак) (124 км)
Погода в Махмуре (Ирак) (136 км)
Погода в Айн Аль-Тамаре (Ирак) (148 км)

Пояснения к столбцам:

Ветер - указаны скорость ветра в м/с - средняя за 10 мин, порывы в срок и между сроками (в фигурных скобках) и направление, откуда дует ветер: С - северный, СВ - северо-восточный, В - восточный, ЮВ - юго-восточный, Ю - южный, ЮЗ - юго-западный, З - западный, СЗ - северо-западный.
Видимость - горизонтальная дальность видимости в метрах или километрах. При видимости от 1 до 10 км при отсутствии осадков обычно наблюдается дымка, при ухудшении видимости до 1 км и менее - туман. В сухую погоду видимость может ухудшаться дымом, пылью или мглою.
Явления - указаны атмосферные явления, наблюдавшиеся в срок или в последний час перед сроком; фигурными скобками обозначены явления, наблюдавшиеся между сроками (за 1-3 часа до срока); квадратными скобками обозначены град или гололедные отложения с указанием их диаметра в мм.
Облачность - указаны через наклонную черту общая и нижняя облачность в баллах и высота нижней границы облаков в метрах; квадратными скобками обозначены формы облаков: Ci - перистые, Cs - перисто-слоистые, Cc - перисто-кучевые, Ac - высококучевые, As - высокослоистые, Sc - слоисто-кучевые, Ns - слоисто-дождевые, Cu - кучевые, Cb - кучево-дождевые. Подробнее классификацию облаков см. в Атласе облаков (PDF).
T - Температура воздуха - температура, измеренная на высоте 2 м над землей.
Td - Температура точки росы - температура, при понижении до которой содержащийся в воздухе водяной пар достигнет насыщения.
f - Относительная влажность воздуха - влажноcть воздуха, измеренная на высоте 2 м над землей.
Te - Эффективная температура - температура, которую ощущает одетый по сезону человек в тени. Характеристика душности погоды. При расчете учитывается влияние влажности воздуха и скорости ветра на теплоощущения человека.
Tes - Эффективная температура на солнце - температура, которую ощущает человек, с поправкой на солнечный нагрев. Характеристика знойности погоды. Зависит от высоты солнца над горизонтом, облачности и скорости ветра. Ночью, в пасмурную погоду, а также при ветре 12 м/с и более поправка равна нулю.
P - Атмосферное давление - приведенное к уровню моря атмосферное давление.
Po - Атмосферное давление - измеренное на уровне метеостанции атмосферное давление.
Tmin - Минимальная температура - минимум температуры воздуха на высоте 2 м над землей.
Tmax - Максимальная температура - максимум температуры воздуха на высоте 2 м над землей.
R - Количество осадков - Количество выпавших осадков за период времени, мм. При наведении курсора мыши на число - период времени, за который выпало указанное количество осадков.
R24 - Количество осадков - Количество выпавших осадков за 24 часа, мм.
S - Снежный покров - Высота снежного покрова, см. При наведении курсора мыши на число - состояние снежного покрова и степень покрытия местности в баллах.